Weather History for KCWI - January, 2012

Change the Weather History Date:

Sunday, January 29, 2012

  Actual Average Record
Temperature  
Mean Temperature 22 °F -  
Max Temperature 30 °F 29 °F 60 °F (2013)
Min Temperature 15 °F 11 °F -22 °F (1966)
Degree Days  
Heating Degree Days 42    
Moisture  
Dew Point 16 °F    
Average Humidity 69    
Maximum Humidity 80    
Minimum Humidity 59    
Precipitation  
Precipitation 0.00 in - - ()
Sea Level Pressure  
Sea Level Pressure 30.13 in    
Wind  
Wind Speed 13 mph (WNW)    
Max Wind Speed 25 mph    
Max Gust Speed 33 mph    
Visibility 10 miles    
Events      
Averages and records for this station are not official NWS values.
T = Trace of Precipitation, MM = Missing Value Source: NWS Daily Summary

Daily Weather History Graph

Daily Weather History Graph

Search for Another Location

Airport or City:

Trip Planner

Search our weather history database for the weather conditions in past years. The results will help you decide how hot, cold, wet, or windy it might be!

Date:

Astronomy

Jan. 29, 2012 Rise Set
Actual Time 7:17 AM CST 5:12 PM CST
Civil Twilight 6:47 AM CST 5:41 PM CST
Nautical Twilight 6:13 AM CST 6:15 PM CST
Astronomical Twilight 5:40 AM CST 6:48 PM CST
Moon 10:01 AM CST (1/29) No Moon Set
Length of Visible Light 10h 54m
Length of Day
9h 55m
Waxing Crescent, 37% of the Moon is Illuminated
Jan 29
Waxing Crescent
Jan 30
First Quarter
Feb 7
Full
Feb 14
Last Quarter
Feb 21
New

Hourly Weather History & Observations

Time (CST) Temp. Windchill Dew Point Humidity Pressure Visibility Wind Dir Wind Speed Gust Speed Precip Events Conditions
12:15 AM 23.0 °F 13.9 °F 17.6 °F 80% 30.04 in 10.0 mi SW 8.1 mph - N/A   Partly Cloudy
12:35 AM 23.0 °F 13.1 °F 17.6 °F 80% 30.03 in 10.0 mi SW 9.2 mph - N/A   Scattered Clouds
12:55 AM 26.6 °F 19.1 °F 19.4 °F 74% 30.03 in 10.0 mi SW 6.9 mph - N/A   Overcast
1:15 AM 26.6 °F 20.0 °F 19.4 °F 74% 30.02 in 10.0 mi SW 5.8 mph - N/A   Overcast
1:35 AM 28.4 °F 18.5 °F 19.4 °F 69% 30.01 in 10.0 mi SSW 11.5 mph - N/A   Mostly Cloudy
1:55 AM 28.4 °F 19.1 °F 19.4 °F 69% 30.01 in 10.0 mi SW 10.4 mph - N/A   Mostly Cloudy
2:15 AM 30.2 °F 19.8 °F 19.4 °F 64% 30.00 in 10.0 mi SW 13.8 mph - N/A   Overcast
2:35 AM 30.2 °F 19.3 °F 19.4 °F 64% 29.99 in 10.0 mi WSW 15.0 mph - N/A   Overcast
2:55 AM 30.2 °F 20.2 °F 19.4 °F 64% 29.99 in 10.0 mi WSW 12.7 mph - N/A   Overcast
3:15 AM 30.2 °F 21.3 °F 21.2 °F 69% 30.00 in 10.0 mi West 10.4 mph - N/A   Overcast
3:35 AM 30.2 °F 20.2 °F 19.4 °F 64% 29.99 in 10.0 mi WSW 12.7 mph - N/A   Overcast
3:55 AM 30.2 °F 19.8 °F 19.4 °F 64% 29.97 in 10.0 mi SW 13.8 mph - N/A   Mostly Cloudy
4:15 AM 30.2 °F 18.5 °F 19.4 °F 64% 29.99 in 10.0 mi West 17.3 mph 21.9 mph N/A   Overcast
4:35 AM 30.2 °F 17.4 °F 19.4 °F 64% 29.99 in 10.0 mi West 20.7 mph 25.3 mph N/A   Overcast
4:55 AM 30.2 °F 16.8 °F 21.2 °F 69% 29.99 in 10.0 mi West 23.0 mph 28.8 mph N/A   Overcast
5:15 AM 30.2 °F 16.2 °F 21.2 °F 69% 30.00 in 10.0 mi West 25.3 mph 28.8 mph N/A   Overcast
5:55 AM 30.2 °F 16.2 °F 23.0 °F 75% 30.01 in 10.0 mi WNW 25.3 mph 28.8 mph N/A   Overcast
6:15 AM 30.2 °F 16.2 °F 21.2 °F 69% 30.02 in 10.0 mi WNW 25.3 mph 33.4 mph N/A   Overcast
6:35 AM 28.4 °F 15.1 °F 19.4 °F 69% 30.03 in 10.0 mi West 20.7 mph 28.8 mph N/A   Partly Cloudy
6:55 AM 26.6 °F 12.7 °F 19.4 °F 74% 30.04 in 10.0 mi West 20.7 mph - N/A   Partly Cloudy
7:15 AM 26.6 °F 11.7 °F 19.4 °F 74% 30.06 in 10.0 mi WNW 24.2 mph - N/A   Mostly Cloudy
7:35 AM 26.6 °F 12.4 °F 19.4 °F 74% 30.07 in 10.0 mi WNW 21.9 mph - N/A   Scattered Clouds
7:55 AM 24.8 °F 11.5 °F 19.4 °F 80% 30.09 in 10.0 mi WNW 17.3 mph - N/A   Mostly Cloudy
8:15 AM 26.6 °F 13.1 °F 19.4 °F 74% 30.10 in 10.0 mi WNW 19.6 mph - N/A   Mostly Cloudy
8:35 AM 26.6 °F 13.8 °F 19.4 °F 74% 30.12 in 10.0 mi WNW 17.3 mph - N/A   Overcast
8:55 AM 26.6 °F 13.4 °F 17.6 °F 69% 30.13 in 10.0 mi NW 18.4 mph 23.0 mph N/A   Mostly Cloudy
9:15 AM 26.6 °F 12.0 °F 15.8 °F 64% 30.14 in 10.0 mi NW 23.0 mph 31.1 mph N/A   Scattered Clouds
9:35 AM 24.8 °F 10.0 °F 15.8 °F 69% 30.15 in 10.0 mi NNW 21.9 mph 31.1 mph N/A   Partly Cloudy
9:55 AM 26.6 °F 12.4 °F 17.6 °F 69% 30.17 in 10.0 mi NW 21.9 mph 26.5 mph N/A   Clear
10:15 AM 26.6 °F 15.2 °F 15.8 °F 64% 30.18 in 10.0 mi NW 13.8 mph - N/A   Clear
10:35 AM 26.6 °F 14.7 °F 17.6 °F 69% 30.19 in 10.0 mi NW 15.0 mph - N/A   Partly Cloudy
10:55 AM 26.6 °F 13.1 °F 17.6 °F 69% 30.20 in 10.0 mi WNW 19.6 mph 23.0 mph N/A   Partly Cloudy
11:15 AM 26.6 °F 12.7 °F 15.8 °F 64% 30.20 in 10.0 mi WNW 20.7 mph - N/A   Clear
11:35 AM 26.6 °F 13.1 °F 14.0 °F 59% 30.20 in 10.0 mi WNW 19.6 mph 25.3 mph N/A   Clear
11:55 AM 26.6 °F 14.7 °F 15.8 °F 64% 30.21 in 10.0 mi WNW 15.0 mph - N/A   Clear
12:15 PM 26.6 °F 14.3 °F 15.8 °F 64% 30.21 in 10.0 mi WNW 16.1 mph - N/A   Clear
12:35 PM 26.6 °F 14.3 °F 15.8 °F 64% 30.20 in 10.0 mi WNW 16.1 mph - N/A   Clear
12:55 PM 28.4 °F 17.5 °F 15.8 °F 59% 30.20 in 10.0 mi WNW 13.8 mph - N/A   Clear
1:15 PM 26.6 °F 14.7 °F 14.0 °F 59% 30.20 in 10.0 mi WNW 15.0 mph - N/A   Clear
1:35 PM 26.6 °F 13.8 °F 15.8 °F 64% 30.21 in 10.0 mi WNW 17.3 mph - N/A   Clear
1:55 PM 26.6 °F 13.8 °F 14.0 °F 59% 30.21 in 10.0 mi WNW 17.3 mph - N/A   Clear
2:15 PM 26.6 °F 13.4 °F 14.0 °F 59% 30.22 in 10.0 mi West 18.4 mph - N/A   Clear
2:35 PM 26.6 °F 14.3 °F 14.0 °F 59% 30.22 in 10.0 mi WNW 16.1 mph - N/A   Clear
2:55 PM 26.6 °F 15.2 °F 15.8 °F 64% 30.22 in 10.0 mi WNW 13.8 mph - N/A   Clear
3:15 PM 26.6 °F 16.2 °F 14.0 °F 59% 30.23 in 10.0 mi WNW 11.5 mph - N/A   Clear
3:35 PM 26.6 °F 16.8 °F 14.0 °F 59% 30.23 in 10.0 mi WNW 10.4 mph - N/A   Clear
3:55 PM 24.8 °F 14.6 °F 15.8 °F 69% 30.23 in 10.0 mi WNW 10.4 mph - N/A   Clear
4:15 PM 24.8 °F 15.3 °F 14.0 °F 64% 30.24 in 10.0 mi WNW 9.2 mph - N/A   Clear
4:35 PM 23.0 °F 14.7 °F 14.0 °F 68% 30.25 in 10.0 mi West 6.9 mph - N/A   Clear
5:15 PM 19.4 °F 11.5 °F 12.2 °F 74% 30.24 in 10.0 mi WNW 5.8 mph - N/A   Clear
5:35 PM 19.4 °F 11.5 °F 12.2 °F 74% 30.24 in 10.0 mi WNW 5.8 mph - N/A   Clear
5:55 PM 17.6 °F 10.7 °F 10.4 °F 73% 30.24 in 10.0 mi West 4.6 mph - N/A   Clear
6:15 PM 17.6 °F 10.7 °F 12.2 °F 79% 30.25 in 10.0 mi WNW 4.6 mph - N/A   Clear
6:35 PM 19.4 °F - 12.2 °F 74% 30.25 in 10.0 mi Calm Calm - N/A   Clear
6:55 PM 19.4 °F - 12.2 °F 74% 30.24 in 10.0 mi Calm Calm - N/A   Clear
7:15 PM 19.4 °F - 12.2 °F 74% 30.24 in 10.0 mi Calm Calm - N/A   Clear
7:35 PM 19.4 °F - 12.2 °F 74% 30.24 in 10.0 mi Calm Calm - N/A   Clear
7:55 PM 15.8 °F 10.2 °F 10.4 °F 79% 30.24 in 10.0 mi East 3.5 mph - N/A   Clear
8:15 PM 15.8 °F 7.2 °F 10.4 °F 79% 30.23 in 10.0 mi East 5.8 mph - N/A   Clear
8:35 PM 15.8 °F 7.2 °F 10.4 °F 79% 30.22 in 10.0 mi East 5.8 mph - N/A   Partly Cloudy
8:55 PM 17.6 °F 12.3 °F 12.2 °F 79% 30.22 in 10.0 mi East 3.5 mph - N/A   Mostly Cloudy
9:15 PM 17.6 °F 10.7 °F 12.2 °F 79% 30.22 in 10.0 mi East 4.6 mph - N/A   Overcast
9:35 PM 17.6 °F 10.7 °F 12.2 °F 79% 30.22 in 10.0 mi East 4.6 mph - N/A   Overcast
10:15 PM 21.2 °F 16.4 °F 17.6 °F 86% 30.21 in 10.0 mi SE 3.5 mph - N/A   Overcast
10:35 PM 23.0 °F 14.7 °F 15.8 °F 74% 30.21 in 10.0 mi SSE 6.9 mph - N/A   Overcast
10:55 PM 23.0 °F 14.7 °F 17.6 °F 80% 30.21 in 10.0 mi SE 6.9 mph - N/A   Overcast
11:35 PM 24.8 °F 16.1 °F 17.6 °F 74% 30.20 in 10.0 mi East 8.1 mph - N/A   Overcast
11:55 PM 24.8 °F 14.6 °F 17.6 °F 74% 30.17 in 10.0 mi ESE 10.4 mph - N/A   Overcast